Location: Gro� Glienicke
(52.4675°N, 13.1079°E)
Time: 07:37:54
(UTC+00:00)

ALOS 2 - Pass Details

Date: 06 July 2020
Orbit: 630 x 632 km, 97.9° (Epoch: 04 August)

Event Time Altitude Azimuth Distance (km) Brightness Sun altitude
Exits shadow 22:19:00 23° 160° (SSE) 1,358 3.7 -14.1°
Maximum altitude 22:21:45 84° 75° (ENE) 644 2.6 -14.2°
Drops below altitude 10° 22:26:10 10° 347° (NNW) 2,027 6.6 -14.3°
Sets 22:28:23 0° 347° (NNW) 2,939 8.0 -14.4°
